Winfield, KS

5:02 AM CST on February 12, 2016 (GMT -0600)
Strother

Weather History for KWLD - July, 2013

Change the Weather History Date:

Monday, July 22, 2013

  Actual Average Record
Temperature  
Mean Temperature 82 °F -  
Max Temperature 90 °F 91 °F 106 °F (2001)
Min Temperature 75 °F 69 °F 62 °F (2006)
Cooling Degree Days 18    
Growing Degree Days 32 (Base 50)    
Moisture  
Dew Point 72 °F    
Average Humidity 72    
Maximum Humidity 90    
Minimum Humidity 36    
Precipitation  
Precipitation 0.00 in - - ()
Sea Level Pressure  
Sea Level Pressure 29.81 in    
Wind  
Wind Speed 8 mph (South)    
Max Wind Speed 18 mph    
Max Gust Speed 28 mph    
Visibility 10 miles    
Events      
Averages and records for this station are not official NWS values.
T = Trace of Precipitation, MM = Missing Value Source: NWS Daily Summary

Daily Weather History Graph

Daily Weather History Graph

Search for Another Location

Airport or City:

Trip Planner

Search our weather history database for the weather conditions in past years. The results will help you decide how hot, cold, wet, or windy it might be!

Date:

Astronomy

Jul. 22, 2013 Rise Set
Actual Time 6:25 AM CDT 8:43 PM CDT
Civil Twilight 5:55 AM CDT 9:13 PM CDT
Nautical Twilight 5:19 AM CDT 9:49 PM CDT
Astronomical Twilight 4:39 AM CDT 10:29 PM CDT
Moon 8:32 PM CDT (7/22) 6:21 AM CDT (7/22)
Length of Visible Light 15h 17m
Length of Day
14h 18m
Full, 100% of the Moon is Illuminated
Jul 22
Full
Jul 22
Full
Jul 29
Last Quarter
Aug 6
New
Aug 14
First Quarter

Hourly Weather History & Observations

Time (CDT) Temp. Heat Index Dew Point Humidity Pressure Visibility Wind Dir Wind Speed Gust Speed Precip Events Conditions
12:54 AM 79.0 °F - 75.0 °F 88% 29.81 in 10.0 mi ESE 8.1 mph - N/A   Mostly Cloudy
1:54 AM 78.1 °F - 73.9 °F 87% 29.79 in 10.0 mi SE 5.8 mph - N/A   Partly Cloudy
2:54 AM 77.0 °F - 73.0 °F 88% 29.79 in 10.0 mi South 4.6 mph - N/A   Clear
3:54 AM 75.0 °F - 72.0 °F 90% 29.78 in 10.0 mi SSW 4.6 mph - N/A   Clear
4:54 AM 75.0 °F - 71.1 °F 87% 29.79 in 10.0 mi South 4.6 mph - N/A   Partly Cloudy
5:54 AM 75.0 °F - 71.1 °F 87% 29.79 in 10.0 mi South 5.8 mph - N/A   Scattered Clouds
6:54 AM 75.9 °F - 71.1 °F 85% 29.79 in 10.0 mi SSW 8.1 mph - N/A   Clear
7:54 AM 79.0 °F - 71.1 °F 77% 29.82 in 10.0 mi SSW 6.9 mph - N/A   Partly Cloudy
8:54 AM 82.9 °F 87.5 °F 71.1 °F 67% 29.81 in 10.0 mi SW 11.5 mph - N/A   Clear
9:54 AM 86.0 °F 91.5 °F 71.1 °F 61% 29.82 in 10.0 mi SW 12.7 mph - N/A   Clear
10:54 AM 82.9 °F 87.5 °F 71.1 °F 67% 29.90 in 10.0 mi NNW 15.0 mph - N/A   Partly Cloudy
11:01 AM 82.4 °F 87.2 °F 71.6 °F 70% 29.94 in 10.0 mi NNW 5.8 mph - N/A   Partly Cloudy
12:54 PM 84.9 °F 89.4 °F 70.0 °F 61% 29.86 in 10.0 mi ESE 10.4 mph - N/A   Clear
1:54 PM 84.9 °F 90.7 °F 72.0 °F 65% 29.82 in 10.0 mi SSE 18.4 mph 27.6 mph N/A   Clear
2:54 PM 87.1 °F 94.5 °F 73.0 °F 63% 29.83 in 10.0 mi SE 16.1 mph - N/A   Clear
3:54 PM 87.1 °F 96.3 °F 75.0 °F 67% 29.83 in 10.0 mi SE 10.4 mph - N/A   Clear
4:54 PM 90.0 °F 101.3 °F 75.9 °F 63% 29.82 in 10.0 mi SE 10.4 mph - N/A   Clear
5:54 PM 86.0 °F 96.0 °F 75.9 °F 72% 29.85 in 10.0 mi ESE 3.5 mph - N/A   Clear
6:54 PM 84.0 °F 91.9 °F 75.0 °F 74% 29.79 in 10.0 mi SE 13.8 mph - N/A   Scattered Clouds
7:54 PM 82.9 °F 90.8 °F 75.9 °F 79% 29.77 in 10.0 mi South 11.5 mph - N/A   Partly Cloudy
8:54 PM 81.0 °F 86.2 °F 73.9 °F 79% 29.75 in 10.0 mi SSW 10.4 mph - N/A   Clear
9:54 PM 82.9 °F 88.8 °F 73.0 °F 72% 29.81 in 10.0 mi West 3.5 mph - N/A   Clear
10:54 PM 89.1 °F 88.2 °F 59.0 °F 36% 29.76 in 10.0 mi SW 17.3 mph 25.3 mph N/A   Scattered Clouds
11:54 PM 80.1 °F 81.1 °F 61.0 °F 52% 29.77 in 10.0 mi SSW 3.5 mph - N/A   Clear